sat.trackr.live / text

‹ back to catalog

STARLINK-3704

NORAD 51959 · 2022-025D

PAYLOAD ACTIVE UNKNOWN

§ Identity

Operator
Country
US
Launch date
2022-03-09
Launch site
AFETR
Launch vehicle
Mass (kg)
RCS (m²)

Purposes: comms

External: N2YO · Heavens-Above · Gunter

§ Orbital elements

Epoch: 2026-05-25T03:20:30.646176Z

Period
94.01 min
Inclination
53.1612°
Eccentricity
0.0001176
Mean motion
15.31692430 rev/d
Perigee alt
470.0 km
Apogee alt
471.6 km
Semi-major
6,848.9 km
B*
8.2264e-5
RAAN
41.8711°
Arg perigee
100.6399°
Mean anomaly
259.4735°
Rev number
23,253

§ Raw data

STARLINK-37041 51959U 22025D   26145.13924359  .00002188  00000+0  82264-4 0  99982 51959  53.1612  41.8711 0001176 100.6399 259.4735 15.31692430232538

JSON: /api/v1/satellites/51959 · /tle

For live sub-satellite position, see the globe view (requires WebGL).

§ Visibility from observer

Set your observer location to see the next 7 days of passes ≥ 10°. The values pass through the URL so the page stays shareable.

No JS? Fill the form by hand. The geolocation button needs JavaScript.